Location: Palomar Mountain Lodge
(33.3110°N, 116.8495°W)
Time: 19:06:27
(UTC-07:00)

Cosmos 2058 Rocket - Pass Details

Date: 14 June 2018
Orbit: 610 x 640 km, 82.5° (Epoch: 18 August)

Event Time Altitude Azimuth Distance (km) Brightness Sun altitude
Rises 20:19:20 0° 6° (N) 2,921 6.9 -4.7°
Reaches altitude 10° 20:21:50 10° 18° (NNE) 2,004 5.9 -5.1°
Maximum altitude 20:25:42 29° 78° (ENE) 1,150 4.1 -5.8°
Drops below altitude 10° 20:29:31 10° 139° (SE) 1,976 5.0 -6.4°
Enters shadow 20:30:22 - 144° (SE) 2,281 5.4 -6.6°
